Retour au catalogue

SHUTIANYUXING-03

ActifScienceSSO
NORAD 67749·PAYLOAD·🇨🇳 China
Ce nom de satellite n'a pas encore été confirmé par des sources officielles.

Lancé Feb 12, 2026 depuis South China Sea Launch Area

Loading…

Prochains Passages (prochaines 24 heures)

TLE

FraisSource: Space-Track

Époque: Sep 14, 2026, 19:06 UTC

1 67749U 26027D   26257.79647343  .00006996  00000-0  31818-3 0  9999
2 67749  97.5176  25.7398 0008343 271.3615  88.6664 15.21017343 32535

Suivez SHUTIANYUXING-03 en temps réel avec AllMySat

Download on the App Store